Location: Boley
(53.1150°N, 8.2269°W)
Time: 00:24:32
(UTC+00:00)

Cosmos 2219 Rocket - Pass Details

Date: 15 May 2026
Orbit: 825 x 846 km, 71.0° (Epoch: 9 June)

Event Time Altitude Azimuth Distance (km) Brightness Sun altitude
Rises 21:55:25 0° 328° (NNW) 3,404 7.6 -10.6°
Reaches altitude 10° 21:57:52 10° 330° (NNW) 2,469 6.2 -10.8°
Maximum altitude 22:03:33 76° 56° (ENE) 873 2.3 -11.3°
Enters shadow 22:08:13 16° 142° (SE) 2,089 3.6 -11.7°
